This demonstration page uses our WeatherBlox Daily Observations layout. Learn more.

Left ArrowRight Arrow

39.92423, -83.80882

Hourly Observations for January 27, 2017

Temp ( °F °C ) Dew Point ( °F °C ) Humidity (%) Winds ( mph kmh ) Pressure ( in mb ) Visibility ( mi km ) Precip ( " mm )
12:56 am 00:56 Cloudy with Light Snow 30 -1.1 27 -2.8 88 88 WSW 13 20 29.96 1015 9 14.48406 0 0.0254
1:56 am 01:56 Cloudy with Light Snow 30 -1.1 27 -2.8 88 88 WSW 15 24 29.95 1014 8 12.87472 0 0.0254
2:56 am 02:56 Cloudy with Light Snow 30 -1.1 27 -2.8 88 88 W 17 28 29.95 1014 9 14.48406 0 0.0254
3:08 am 03:08 Cloudy with Light Snow 30 -1 27 -3 86 86 WSW 16 26 29.97 1015 9 14.48406 0 0.0254
3:56 am 03:56 Cloudy with Light Snow 29 -1.7 27 -2.8 92 92 W 15 24 29.94 1014 6 9.65604 0 0.0254
4:56 am 04:56 Cloudy with Light Snow 29 -1.7 26 -3.3 89 89 WSW 16 26 29.93 1014 5 8.0467 0 0.0254
5:09 am 05:09 Cloudy with Light Snow 28 -2 27 -3 93 93 W 12 19 29.97 1015 9 14.48406 0 0.0254
5:56 am 05:56 Cloudy with Light Snow 29 -1.7 25 -3.9 85 85 W 14 22 29.93 1014 9 14.48406 0 0.0254
6:14 am 06:14 Cloudy with Light Snow 28 -2 25 -4 86 86 W 16 26 29.97 1015 1.75 2.816345 0 0.0254
6:27 am 06:27 Cloudy with Light Snow 28 -2 25 -4 86 86 W 14 22 29.97 1015 3 4.82802 0 0.0254
6:43 am 06:43 Cloudy 27 -3 25 -4 93 93 WSW 13 20 29.97 1015 9 14.48406 0 0.0254
6:56 am 06:56 Cloudy with Light Snow 28 -2.2 25 -3.9 88 88 WSW 14 22 29.95 1014 9 14.48406 0 0.0254
7:35 am 07:35 Cloudy with Light Snow 28 -2 25 -4 86 86 W 15 24 29.97 1015 8 12.87472 0 0.0254
7:56 am 07:56 Cloudy with Light Snow 28 -2.2 25 -3.9 88 88 WSW 13 20 29.95 1014 7 11.26538 0 0.0254
8:12 am 08:12 Cloudy with Light Snow 28 -2 25 -4 86 86 WSW 15 24 29.97 1015 9 14.48406 0 0.0254
8:23 am 08:23 Cloudy with Light Snow 28 -2 25 -4 86 86 WSW 14 22 29.97 1015 9 14.48406 0 0.0254
8:56 am 08:56 Cloudy with Light Snow 29 -1.7 25 -3.9 85 85 WSW 14 22 29.95 1014 9 14.48406 0 0.0254
9:39 am 09:39 Cloudy with Light Snow 28 -2 27 -3 93 93 WSW 12 19 29.97 1015 1.75 2.816345 0 0.0254
9:49 am 09:49 Cloudy with Light Snow 28 -2 27 -3 93 93 WSW 12 19 29.97 1015 3 4.82802 0 0.0254
9:56 am 09:56 Cloudy with Light Snow 29 -1.7 26 -3.3 89 89 WSW 15 24 29.95 1014 5 8.0467 0 0.0254
10:05 am 10:05 Cloudy with Light Snow 28 -2 27 -3 93 93 WSW 17 28 29.97 1015 1.5 2.41401 0 0.0254
10:07 am 10:07 Cloudy with Light Snow 28 -2 27 -3 93 93 WSW 16 26 29.97 1015 1 1.60934 0 0.0254
10:09 am 10:09 Windy with Snow Likely 28 -2 27 -3 93 93 W 20 31 29.97 1015 0.5 0.80467 0 0.0254
10:18 am 10:18 Cloudy with Light Snow 28 -2 27 -3 93 93 W 16 26 29.97 1015 1 1.60934 0 0.0254
10:20 am 10:20 Cloudy with Light Snow 30 -1 27 -3 86 86 W 15 24 29.97 1015 2.5 4.02335 0 0.0254
10:25 am 10:25 Cloudy with Light Snow 30 -1 27 -3 86 86 W 17 28 29.97 1015 9 14.48406 0 0.0254
10:56 am 10:56 Windy with Snow Likely 31 -0.6 24 -4.4 76 76 W 21 33 29.95 1014 9 14.48406 0.01 0.254
11:56 am 11:56 Cloudy with Light Snow 32 0 24 -4.4 73 73 W 16 26 29.93 1014 9 14.48406 0 0.0254
12:56 pm 12:56 Cloudy with Light Snow 32 0 24 -4.4 73 73 W 14 22 29.91 1013 9 14.48406 0 0.0254
1:11 pm 13:11 Cloudy with Light Snow 30 -1 25 -4 80 80 W 13 20 29.94 1014 9 14.48406 0 0.0254
1:47 pm 13:47 Cloudy with Light Snow 30 -1 25 -4 80 80 WSW 16 26 29.94 1014 4 6.43736 0 0.0254
1:56 pm 13:56 Cloudy with Light Snow 30 -1.1 25 -3.9 82 82 W 13 20 29.9 1013 2.5 4.02335 0 0.0254
2:04 pm 14:04 Cloudy with Light Snow 30 -1 27 -3 86 86 W 14 22 29.91 1013 6 9.65604 0 0.0254
2:56 pm 14:56 Cloudy with Light Snow 31 -0.6 24 -4.4 76 76 WSW 13 20 29.9 1012 9 14.48406 0 0.0254
3:14 pm 15:14 Cloudy with Light Snow 30 -1 25 -4 80 80 W 15 24 29.91 1013 9 14.48406 0 0.0254
3:56 pm 15:56 Cloudy with Light Snow 31 -0.6 24 -4.4 76 76 W 16 26 29.9 1013 9 14.48406 0 0.0254
4:31 pm 16:31 Windy with Snow Likely 30 -1 25 -4 80 80 WSW 20 31 29.91 1013 9 14.48406 0 0.0254
4:56 pm 16:56 Cloudy with Light Snow 31 -0.6 25 -3.9 79 79 WSW 16 26 29.9 1013 9 14.48406 0 0.0254
5:56 pm 17:56 Cloudy with Light Snow 30 -1.1 25 -3.9 82 82 WSW 12 19 29.91 1013 9 14.48406 0 0.0254
6:05 pm 18:05 Cloudy with Light Snow 30 -1 27 -3 86 86 WSW 9 15 29.94 1014 9 14.48406 0 0.0254
6:56 pm 18:56 Cloudy with Light Snow 30 -1.1 26 -3.3 85 85 W 9 15 29.91 1013 9 14.48406 0 0.0254
7:56 pm 19:56 Windy with Snow Likely 30 -1.1 25 -3.9 82 82 W 22 35 29.9 1013 9 14.48406 0 0.0254
8:04 pm 20:04 Cloudy with Light Snow 30 -1 25 -4 80 80 W 17 28 29.91 1013 9 14.48406 0 0.0254
8:56 pm 20:56 Windy with Snow Likely 30 -1.1 22 -5.6 72 72 W 28 44 29.89 1012 9 14.48406 0 0.0254
9:26 pm 21:26 Cloudy with Light Snow 28 -2 23 -5 80 80 W 18 30 29.91 1013 9 14.48406 0 0.0254
9:56 pm 21:56 Windy with Snow Likely 29 -1.7 23 -5 78 78 W 21 33 29.89 1012 9 14.48406 0 0.0254
10:56 pm 22:56 Windy with Snow Likely 29 -1.7 22 -5.6 75 75 W 21 33 29.88 1012 9 14.48406 0 0.0254
11:56 pm 23:56 Windy with Snow Likely 28 -2.2 22 -5.6 78 78 W 21 33 29.88 1012 9 14.48406 0 0.0254

Powered by AerisWeather